Time,TemperatureF,DewpointF,PressureIn,WindDirection,WindDirectionDegrees,WindSpeedMPH,WindSpeedGustMPH,Humidity,HourlyPrecipIn,Conditions,Clouds,dailyrainin,SoftwareType,DateUTC
2013-02-26 00:32:00,49.0,-99.9,-100.00,NW,305,9.0,9.0,-999,-99.99,,,-99.99,,2013-02-26 08:32:00,
2013-02-26 00:40:00,48.0,-99.9,-100.00,NW,316,5.0,8.0,-999,-99.99,,,-99.99,,2013-02-26 08:40:00,
2013-02-26 00:42:00,49.0,-99.9,-100.00,NW,305,9.0,9.0,-999,-99.99,,,-99.99,,2013-02-26 08:42:00,
2013-02-26 01:21:00,48.0,-99.9,-100.00,NW,316,5.0,8.0,-999,-99.99,,,-99.99,,2013-02-26 09:21:00,
2013-02-26 01:32:00,48.0,-99.9,-100.00,NW,316,5.0,8.0,-999,-99.99,,,-99.99,,2013-02-26 09:32:00,
2013-02-26 02:01:00,45.0,-99.9,-100.00,NW,321,4.0,7.0,-999,-99.99,,,-99.99,,2013-02-26 10:01:00,
2013-02-26 02:11:00,45.0,-99.9,-100.00,NW,321,4.0,7.0,-999,-99.99,,,-99.99,,2013-02-26 10:11:00,
2013-02-26 02:21:00,45.0,-99.9,-100.00,NW,321,4.0,7.0,-999,-99.99,,,-99.99,,2013-02-26 10:21:00,
2013-02-26 03:01:00,45.0,-99.9,-100.00,NNW,338,7.0,10.0,-999,-99.99,,,-99.99,,2013-02-26 11:01:00,
2013-02-26 03:12:00,45.0,-99.9,-100.00,NNW,338,7.0,10.0,-999,-99.99,,,-99.99,,2013-02-26 11:12:00,
2013-02-26 03:32:00,46.0,-99.9,-100.00,West,272,4.0,5.0,-999,-99.99,,,-99.99,,2013-02-26 11:32:00,
2013-02-26 03:42:00,46.0,-99.9,-100.00,West,272,4.0,5.0,-999,-99.99,,,-99.99,,2013-02-26 11:42:00,
2013-02-26 03:53:00,46.0,-99.9,-100.00,West,272,4.0,5.0,-999,-99.99,,,-99.99,,2013-02-26 11:53:00,
2013-02-26 06:10:00,40.0,-99.9,-100.00,WSW,256,3.0,7.0,-999,-99.99,,,-99.99,,2013-02-26 14:10:00,
2013-02-26 06:32:00,42.0,-99.9,-100.00,WNW,296,3.0,4.0,-999,-99.99,,,-99.99,,2013-02-26 14:32:00,
2013-02-26 06:42:00,42.0,-99.9,-100.00,WNW,296,3.0,4.0,-999,-99.99,,,-99.99,,2013-02-26 14:42:00,
2013-02-26 06:52:00,40.0,-99.9,-100.00,WSW,256,3.0,7.0,-999,-99.99,,,-99.99,,2013-02-26 14:52:00,
2013-02-26 07:02:00,40.0,-99.9,-100.00,WSW,256,3.0,7.0,-999,-99.99,,,-99.99,,2013-02-26 15:02:00,
2013-02-26 07:40:00,50.0,-99.9,-100.00,ENE,72,2.0,2.0,-999,-99.99,,,-99.99,,2013-02-26 15:40:00,
2013-02-26 08:20:00,54.0,-99.9,-100.00,East,86,3.0,4.0,-999,-99.99,,,-99.99,,2013-02-26 16:20:00,
2013-02-26 08:22:00,50.0,-99.9,-100.00,ENE,72,2.0,2.0,-999,-99.99,,,-99.99,,2013-02-26 16:22:00,
2013-02-26 08:32:00,50.0,-99.9,-100.00,ENE,72,2.0,2.0,-999,-99.99,,,-99.99,,2013-02-26 16:32:00,
2013-02-26 09:02:00,54.0,-99.9,-100.00,East,86,3.0,4.0,-999,-99.99,,,-99.99,,2013-02-26 17:02:00,
2013-02-26 09:11:00,54.0,-99.9,-100.00,East,86,3.0,4.0,-999,-99.99,,,-99.99,,2013-02-26 17:11:00,
2013-02-26 09:32:00,59.0,-99.9,-100.00,ESE,119,7.0,11.0,-999,-99.99,,,-99.99,,2013-02-26 17:32:00,
2013-02-26 09:42:00,59.0,-99.9,-100.00,ESE,119,7.0,11.0,-999,-99.99,,,-99.99,,2013-02-26 17:42:00,
2013-02-26 09:52:00,59.0,-99.9,-100.00,ESE,119,7.0,11.0,-999,-99.99,,,-99.99,,2013-02-26 17:52:00,
2013-02-26 15:32:00,66.0,-99.9,-100.00,SSE,148,13.0,27.0,-999,-99.99,,,-99.99,,2013-02-26 23:32:00,
2013-02-26 15:42:00,66.0,-99.9,-100.00,SSE,148,13.0,27.0,-999,-99.99,,,-99.99,,2013-02-26 23:42:00,
2013-02-26 15:52:00,66.0,-99.9,-100.00,SSE,148,13.0,27.0,-999,-99.99,,,-99.99,,2013-02-26 23:52:00,
2013-02-26 18:42:00,58.0,-99.9,-100.00,East,87,8.0,13.0,-999,-99.99,,,-99.99,,2013-02-27 02:42:00,
2013-02-26 18:52:00,58.0,-99.9,-100.00,East,87,8.0,13.0,-999,-99.99,,,-99.99,,2013-02-27 02:52:00,
2013-02-26 20:00:00,58.0,-99.9,-100.00,East,83,5.0,11.0,-999,-99.99,,,-99.99,,2013-02-27 04:00:00,
2013-02-26 20:02:00,59.0,-99.9,-100.00,ENE,75,7.0,9.0,-999,-99.99,,,-99.99,,2013-02-27 04:02:00,
2013-02-26 20:12:00,59.0,-99.9,-100.00,ENE,75,7.0,9.0,-999,-99.99,,,-99.99,,2013-02-27 04:12:00,
2013-02-26 20:52:00,58.0,-99.9,-100.00,East,83,5.0,11.0,-999,-99.99,,,-99.99,,2013-02-27 04:52:00,
2013-02-26 21:30:00,56.0,-99.9,-100.00,East,98,8.0,17.0,-999,-99.99,,,-99.99,,2013-02-27 05:30:00,
2013-02-26 22:02:00,56.0,-99.9,-100.00,East,98,8.0,17.0,-999,-99.99,,,-99.99,,2013-02-27 06:02:00,
2013-02-26 22:10:00,57.0,-99.9,-100.00,ENE,74,8.0,11.0,-999,-99.99,,,-99.99,,2013-02-27 06:10:00,
2013-02-26 22:11:00,56.0,-99.9,-100.00,East,98,8.0,17.0,-999,-99.99,,,-99.99,,2013-02-27 06:11:00,
2013-02-26 22:22:00,56.0,-99.9,-100.00,East,98,8.0,17.0,-999,-99.99,,,-99.99,,2013-02-27 06:22:00,
2013-02-26 22:52:00,57.0,-99.9,-100.00,ENE,74,8.0,11.0,-999,-99.99,,,-99.99,,2013-02-27 06:52:00,
2013-02-26 23:01:00,57.0,-99.9,-100.00,ENE,74,8.0,11.0,-999,-99.99,,,-99.99,,2013-02-27 07:01:00,